THOR AGENA D R/B, 1245

Orbit data source: Space-Track

THOR AGENA D R/B, 1245 is space debris in LEO originally from a launch on Tue, 09 Mar 1965 UTC launched from the Air Force Western Test Range (AFWTR). Debris objects in space refer to the collection of defunct objects orbiting the Earth. Examples of debris include non-operational satellites, rocket bodies, and fragments generated from explosions, collisions, or faulty payload assembly.

Loading next visibility...
Identifier
1245, 1965-016J
Orbit
LEO
Country
Flag of USUS
Related business
Manufacturer
LMSC
Mission
Spacecraft
Bus & Motor
AGENA D, Unknown motor
Mass
600 kg wet, 600 kg dry
Launch date (UTC)
1965-03-09 (61 years ago)
Launch vehicle
Unknown
Launch site
Air Force Western Test Range (AFWTR)
Object type
Payload
Rocket body
Debris
Shape & HBR
CYL, 3.1 m
Radar Cross Section
Large (>1 m²)

Expand to show TLE details & history
Last TLE update: 12 hours ago

TLE from 12 hours ago
0 THOR AGENA D R/B
1 01245U 65016J   26208.87174175  .00000031  00000-0  58960-4 0  9994
2 01245  70.0786  18.1144 0021738 348.9054  11.1571 13.97679043125985
Epoch: 2026-07-27T20:55Z
TLE epoch observation values (Epoch: 2026-07-27T20:55:18.487Z)
Latitude
0.00002°
Longitude
118.73829°
Altitude
888.636 km
Speed
7.416 km/s
True Right ascension
01h 12m 27s
True Declination
0° 00' 00"
Sunlit
Object was in daylight at epoch
Visualization orbit readout
Latitude
Unknown
Longitude
Unknown
Altitude
Unknown
Speed
Unknown
Apparent Right ascension
Unknown
Apparent Declination
Unknown
Sunlit
N/A
Visualization observer readout
Local Sidereal Time
22:37:47
Azimuth
Unknown
Elevation
Unknown
Doppler factor
Unknown
Orbital elements
Apogee altitude
915.698 km
Perigee altitude
884.056 km
Semi-major axis
7,278.014 km
Eccentricity
0.00217
Inclination
70.0786°
RAAN
18.1144°
Arg. of periapsis
348.9054°
True anomaly
11.20543°
Mean anomaly
11.1571°
Eccentric anomaly
11.18125°
Mean motion
3.49562 °/min
Orbital period
102.99 mins
BSTAR
0.00005896
Loading maneuver chart data...
Computing Atmospheric mass density...
Loading historical data...
Loading historical data...
Loading historical data...
Loading historical data...
Loading historical data...
Loading historical data...
Loading historical data...

Documentation

Showing up to 5 results
|